Phuket, Thailand

5:47 AM +07 on January 24, 2018 (GMT +0700)
Phuket International

Weather History for VTSP - November, 2012

Change the Weather History Date:

Friday, November 23, 2012

  Actual Average Record
Temperature  
Mean Temperature 82 °F -  
Max Temperature 89 °F 88 °F 132 °F (2011)
Min Temperature 74 °F 74 °F 71 °F (2004)
Cooling Degree Days 16    
Growing Degree Days 32 (Base 50)    
Moisture  
Dew Point 75 °F    
Average Humidity 84    
Maximum Humidity 95    
Minimum Humidity 70    
Precipitation  
Precipitation 0.20 in 0.13 in - ()
Sea Level Pressure  
Sea Level Pressure 29.83 in    
Wind  
Wind Speed 3 mph ()    
Max Wind Speed 13 mph    
Max Gust Speed -    
Visibility 5.3 miles    
Events Rain , Thunderstorm    
Averages and records for this station are not official NWS values.
T = Trace of Precipitation, MM = Missing Value Source: Averaged Metar Reports

Daily Weather History Graph

Daily Weather History Graph

Search for Another Location

Airport or City:

Trip Planner

Search our weather history database for the weather conditions in past years. The results will help you decide how hot, cold, wet, or windy it might be!

Date:

Astronomy

Nov. 23, 2012 Rise Set
Actual Time 6:21 AM +07 6:04 PM +07
Civil Twilight 5:59 AM +07 6:26 PM +07
Nautical Twilight 5:33 AM +07 6:52 PM +07
Astronomical Twilight 5:08 AM +07 7:18 PM +07
Moon 2:19 PM +07 2:00 AM +07
Length of Visible Light 12h 27m
Length of Day
11h 42m
Waxing Gibbous, 75% of the Moon is Illuminated
Nov 23
Waxing Gibbous
Nov 28
Full
Dec 6
Last Quarter
Dec 13
New
Dec 20
First Quarter

Hourly Weather History & Observations

Time (+07) Temp. Heat Index Dew Point Humidity Pressure Visibility Wind Dir Wind Speed Gust Speed Precip Events Conditions
12:00 AM 80.6 °F 86.2 °F 75.2 °F 84% 29.86 in 5.0 mi Calm Calm - N/A Thunderstorm Thunderstorm
12:30 AM 78.8 °F - 75.2 °F 89% 29.86 in 5.6 mi Calm Calm - N/A Thunderstorm Thunderstorm
1:00 AM 80 °F - 78 °F 91% 29.81 in 5 mi Calm Calm - - Rain Light Rain
1:00 AM 78.8 °F - 75.2 °F 89% 29.86 in 5.0 mi East 4.6 mph - N/A   Mostly Cloudy
1:30 AM 78.8 °F - 75.2 °F 89% 29.83 in 3.7 mi ENE 8.1 mph - N/A Rain Rain
2:30 AM 77.0 °F - 75.2 °F 94% 29.83 in 5.0 mi Calm Calm - N/A   Mostly Cloudy
3:00 AM 77.0 °F - 73.4 °F 89% 29.77 in 5.6 mi East 9.2 mph - N/A   Mostly Cloudy
4:00 AM 77.0 °F - 75.2 °F 94% 29.77 in 5.0 mi Calm Calm - N/A Rain Rain
4:30 AM 77.0 °F - 73.4 °F 89% 29.80 in 3.1 mi Calm Calm - N/A Rain Rain
5:00 AM 77.0 °F - 73.4 °F 89% 29.80 in 4.3 mi Calm Calm - N/A Rain Rain
5:30 AM 75.2 °F - 73.4 °F 94% 29.80 in 4.3 mi Calm Calm - N/A Rain Rain
6:00 AM 75.2 °F - 73.4 °F 94% 29.80 in 5.6 mi Calm Calm - N/A Rain Light Rain
6:30 AM 75.2 °F - 73.4 °F 94% 29.83 in 6.2 mi Calm Calm - N/A   Mostly Cloudy
7:00 AM 77 °F - 76 °F 95% 29.79 in 6 mi Calm Calm - -   Partly Cloudy
7:00 AM 77.0 °F - 75.2 °F 94% 29.83 in 6.2 mi Calm Calm - N/A   Mostly Cloudy
7:30 AM 80.6 °F 86.2 °F 75.2 °F 84% 29.83 in 6.2 mi Calm Calm - N/A   Mostly Cloudy
8:00 AM 80.6 °F 86.2 °F 75.2 °F 84% 29.86 in 6.2 mi Calm Calm - N/A   Mostly Cloudy
8:30 AM 80.6 °F 85.4 °F 73.4 °F 79% 29.86 in 6.2 mi Calm Calm - N/A   Mostly Cloudy
9:00 AM 82.4 °F 89.5 °F 75.2 °F 79% 29.89 in 6.2 mi ENE 3.5 mph - N/A   Scattered Clouds
9:30 AM 84.2 °F 92.3 °F 75.2 °F 74% 29.89 in 6.2 mi Calm Calm - N/A   Scattered Clouds
10:00 AM 86.0 °F 95.1 °F 75.2 °F 70% 29.89 in 6.2 mi Calm Calm - N/A   Scattered Clouds
10:30 AM 86.0 °F 95.1 °F 75.2 °F 70% 29.89 in 5.0 mi NW 3.5 mph - N/A   Mostly Cloudy
11:00 AM 82.4 °F 89.5 °F 75.2 °F 79% 29.89 in 4.3 mi Calm Calm - N/A Rain Light Rain
11:30 AM 82.4 °F 90.9 °F 77.0 °F 84% 29.89 in 4.3 mi Variable 3.5 mph - N/A Rain Light Rain
12:00 PM 82.4 °F 90.9 °F 77.0 °F 84% 29.86 in 4.3 mi NNW 5.8 mph - N/A   Mostly Cloudy
12:30 PM 84.2 °F 94.1 °F 77.0 °F 79% 29.86 in 5.0 mi West 6.9 mph - N/A   Mostly Cloudy
1:00 PM 85 °F - 81 °F 83% 29.81 in 6 mi West 6.9 mph - -   Partly Cloudy
1:00 PM 84.2 °F 92.3 °F 75.2 °F 74% 29.83 in 5.6 mi West 9.2 mph - N/A   Mostly Cloudy
1:30 PM 86.0 °F 95.1 °F 75.2 °F 70% 29.83 in 5.6 mi West 10.4 mph - N/A   Mostly Cloudy
2:00 PM 86.0 °F 95.1 °F 75.2 °F 70% 29.80 in 5.6 mi West 11.5 mph - N/A   Mostly Cloudy
2:30 PM 84.2 °F 94.1 °F 77.0 °F 79% 29.77 in 5.6 mi West 11.5 mph - N/A   Mostly Cloudy
3:00 PM 84.2 °F 92.3 °F 75.2 °F 74% 29.77 in 5.6 mi West 12.7 mph - N/A   Mostly Cloudy
3:30 PM 84.2 °F 94.1 °F 77.0 °F 79% 29.77 in 4.3 mi West 9.2 mph - N/A   Mostly Cloudy
4:00 PM 84.2 °F 94.1 °F 77.0 °F 79% 29.74 in 5.0 mi WNW 10.4 mph - N/A   Mostly Cloudy
4:30 PM 82.4 °F 89.5 °F 75.2 °F 79% 29.77 in 5.6 mi WNW 8.1 mph - N/A   Mostly Cloudy
5:00 PM 82.4 °F 89.5 °F 75.2 °F 79% 29.77 in 5.6 mi WNW 10.4 mph - N/A   Mostly Cloudy
5:30 PM 82.4 °F 89.5 °F 75.2 °F 79% 29.77 in 5.6 mi West 8.1 mph - N/A   Mostly Cloudy
6:00 PM 82.4 °F 89.5 °F 75.2 °F 79% 29.77 in 5.0 mi West 8.1 mph - N/A   Mostly Cloudy
6:30 PM 82.4 °F 89.5 °F 75.2 °F 79% 29.80 in 5.0 mi WSW 2.3 mph - N/A   Mostly Cloudy
7:00 PM 83 °F - 77 °F 77% 29.75 in 6 mi NNW 2.3 mph - -   Scattered Clouds
7:00 PM 80.6 °F 86.2 °F 75.2 °F 84% 29.80 in 5.0 mi North 3.5 mph - N/A   Mostly Cloudy
7:30 PM 78.8 °F - 77.0 °F 94% 29.83 in 5.0 mi Calm Calm - N/A   Mostly Cloudy
8:00 PM 82.4 °F 89.5 °F 75.2 °F 79% 29.83 in 5.6 mi NW 5.8 mph - N/A   Scattered Clouds
8:30 PM 80.6 °F 86.2 °F 75.2 °F 84% 29.86 in 5.6 mi NNW 3.5 mph - N/A   Mostly Cloudy
9:00 PM 78.8 °F - 75.2 °F 89% 29.89 in 5.0 mi Calm Calm - N/A   Mostly Cloudy
9:30 PM 80.6 °F 87.1 °F 77.0 °F 89% 29.89 in 5.0 mi Variable 1.2 mph - N/A   Mostly Cloudy
10:00 PM 80.6 °F 86.2 °F 75.2 °F 84% 29.89 in 5.0 mi ENE 4.6 mph - N/A   Mostly Cloudy
10:30 PM 78.8 °F - 77.0 °F 94% 29.89 in 5.0 mi Variable 2.3 mph - N/A   Mostly Cloudy
11:00 PM 78.8 °F - 75.2 °F 89% 29.89 in 5.0 mi Variable 2.3 mph - N/A   Mostly Cloudy
11:30 PM 78.8 °F - 75.2 °F 89% 29.86 in 5.0 mi Calm Calm - N/A   Mostly Cloudy